{"data":{"norad_id":53405,"epoch":"2026-05-24T10:32:53.695104Z","epoch_age_seconds":113572,"freshness":"FRESH","line1":"1 53405U 22097T   26144.43951036  .00000526  00000+0  51165-4 0  9999","line2":"2 53405  53.2136 144.0667 0001071  75.1497 284.9614 15.08835171209957","mean_motion":15.08835171,"eccentricity":0.0001071,"inclination_deg":53.2136,"raan_deg":144.0667,"arg_perigee_deg":75.1497,"mean_anomaly_deg":284.9614,"bstar":5.1165e-5,"rev_number":20995,"period_min":95.437860123954,"perigee_km":539.01724275411,"apogee_km":540.49905589509,"semimajor_km":6917.8951493246,"source":"CELESTRAK","updated_at":"2026-05-25T13:38:17.399154Z"}}